[[{"header":{"parameterUnit":"m.s-1","parameterCategory":1,"la1":30.2991,"la2":30.254,"lo1":-89.0895,"lo2":-89.0444,"dy":0.0017,"dx":0.0017,"nx":28,"ny":28,"refTime":"2024-05-21T03:00:00:Z","depth":0,"parameterNumber":2,"parameterNumberName":"U-component_of_WINDS"},"data":[0,0,0,0,0,0,0,0,0,0,0,0,0,0,0,0,0,0,0,0,0,0,0,0,0,0,0,0,0,0,0,0,0,0,0,0,0,0,0,0,0,0,0,0,0,0,0,0,0,0,0,0,0,0,0,0,0,0,-2.4822,-2.4824,0,-2.4961,-2.4962,-2.4964,-2.497,-2.4968,-2.4967,-2.4965,-2.511,-2.5115,-2.512,0,0,0,0,0,0,0,0,0,0,0,0,0,-2.4567,-2.4571,-2.4822,-2.4824,-2.4826,-2.496,-2.4962,-2.4964,-2.497,-2.4968,-2.4966,-2.4964,-2.5108,-2.5115,-2.5121,0,0,0,0,0,0,0,0,0,0,0,0,0,-2.4689,-2.4573,-2.4822,-2.4845,-2.4848,-2.496,-2.4962,-2.4965,-2.4971,-2.4968,-2.4966,-2.4963,-2.5106,-2.5114,-2.5122,-2.5221,0,0,-2.5147,-2.515,0,0,0,0,0,0,0,0,-2.4682,-2.4698,-2.484,-2.4843,-2.4847,-2.4945,-2.4925,-2.5051,-2.4971,-2.4924,-2.4965,-2.4962,-2.5057,-2.5069,-2.5101,-2.5228,-2.5234,-2.5147,-2.5152,-2.5156,-2.5158,0,0,0,0,0,0,0,-2.4673,-2.4692,-2.4877,-2.4842,-2.4847,-2.4849,-2.4864,-2.4949,-2.5003,-2.4928,-2.4929,-2.4945,-2.5059,-2.5093,-2.5104,-2.5236,-2.5147,-2.5154,-2.5159,-2.5162,-2.5452,-2.5455,0,0,0,0,0,0,-2.466,-2.4685,-2.4873,-2.4881,-2.4757,-2.4856,-2.4872,-2.4917,-2.5002,-2.5013,-2.4947,-2.4945,-2.508,-2.5095,-2.5109,-2.5231,-2.5156,-2.5163,-2.5168,-2.5449,-2.5453,-2.5456,0,0,0,0,0,0,-2.4654,-2.4676,-2.4867,-2.4783,-2.4808,-2.4863,-2.4913,-2.4921,-2.4954,-2.5016,-2.5026,-2.4971,-2.5079,-2.5098,-2.5193,-2.5236,-2.5167,-2.5174,-2.5446,-2.545,-2.5454,-2.5475,0,0,0,0,0,0,-2.4647,-2.4674,-2.4712,-2.4784,-2.4812,-2.4948,-2.4915,-2.4925,-2.4968,-2.4966,-2.5042,-2.5052,-2.5079,-2.5181,-2.5201,-2.5246,-2.518,-2.5442,-2.5448,-2.5453,-2.5471,-2.5479,-2.5487,0,0,0,0,0,-2.4638,-2.4713,-2.4714,-2.4736,-2.486,-2.495,-2.4966,-2.4994,-2.4971,-2.501,-2.505,-2.505,-2.5228,-2.5191,-2.5213,-2.5261,-2.544,-2.5446,-2.5453,-2.5467,-2.5478,-2.5487,0,0,0,0,0,0,-2.4645,-2.4723,-2.4724,-2.4825,-2.4881,-2.4951,-2.5,-2.5004,-2.5069,-2.5065,-2.5098,-2.5115,-2.5209,-2.5245,-2.5202,-2.5362,-2.5332,-2.5343,-2.5335,-2.5345,-2.5353,-2.5342,-2.5187,0,0,0,0,0,-2.4658,-2.4724,-2.4789,-2.4871,-2.4899,-2.4945,-2.4985,-2.5002,-2.5061,-2.5085,-2.5132,-2.5191,-2.526,-2.5305,-2.5372,-2.5476,-2.5493,-2.5521,-2.5529,-2.5535,-2.5544,-2.5602,-2.5615,-2.5477,-2.5477,-2.5477,0,0,-2.4687,-2.4737,-2.4776,-2.4874,-2.4919,-2.4987,-2.4965,-2.5037,-2.5088,-2.5097,-2.5188,-2.5225,-2.5293,-2.5393,-2.5439,-2.5426,-2.5586,-2.5543,-2.5548,-2.5554,-2.561,-2.5623,-2.5634,-2.5481,-2.548,-2.548,0,0,-2.4772,-2.4817,-2.489,-2.4936,-2.5004,-2.5034,-2.5052,-2.5122,-2.5146,-2.5239,-2.5246,-2.5308,-2.5427,-2.5475,-2.5515,-2.5619,-2.5622,-2.5641,-2.5683,-2.5738,-2.5749,-2.5759,-2.5796,-2.5809,-2.565,-2.565,-2.565,0,-2.4799,-2.49,-2.4928,-2.5001,-2.5043,-2.5053,-2.5128,-2.5172,-2.5259,-2.5289,-2.5272,-2.5421,-2.5468,-2.5579,-2.5604,-2.5636,-2.5658,-2.5632,-2.5745,-2.5755,-2.5765,-2.5801,-2.5814,-2.5652,-2.5651,-2.5651,-2.5651,0,-2.493,-2.5,-2.5051,-2.5134,-2.5183,-2.5256,-2.5296,-2.5342,-2.5355,-2.5387,-2.5482,-2.5538,-2.5617,-2.5645,-2.5659,-2.5759,-2.5748,-2.5738,-2.5708,-2.5779,-2.5813,-2.5827,-2.5654,-2.5653,-2.5653,-2.5652,0,0,-2.5023,-2.512,-2.5138,-2.5176,-2.5252,-2.5308,-2.5382,-2.5458,-2.5497,-2.5558,-2.5621,-2.5722,-2.5713,-2.5758,-2.5778,-2.5827,-2.5906,-2.5811,-2.5813,-2.5826,-2.6019,-2.6025,-2.6041,-2.5908,-2.5911,-2.5913,-2.6013,0,-2.5117,-2.5248,-2.5275,-2.5389,-2.5454,-2.5465,-2.553,-2.5584,-2.5617,-2.5678,-2.5715,-2.5785,-2.5768,-2.5796,-2.5845,-2.5886,-2.5945,-2.5879,-2.5968,-2.5971,-2.595,-2.6058,-2.6065,-2.6157,-2.6027,-2.6029,-2.6031,0,-2.5243,-2.5305,-2.5425,-2.5492,-2.5521,-2.5579,-2.565,-2.5709,-2.5771,-2.5791,-2.5842,-2.5856,-2.5935,-2.5902,-2.6011,-2.5966,-2.6004,-2.603,-2.6034,-2.6043,-2.6004,-2.6069,-2.6187,-2.62,-2.6052,-2.605,-2.6049,0,-2.5299,-2.5412,-2.5499,-2.5531,-2.5612,-2.5652,-2.5688,-2.5748,-2.5791,-2.5855,-2.5884,-2.5956,-2.5996,-2.6052,-2.6086,-2.6058,-2.6193,-2.6162,-2.6212,-2.6211,-2.6239,-2.6236,-2.6363,-2.6265,-2.6265,-2.6265,-2.6264,0,-2.54,-2.5473,-2.5524,-2.5577,-2.566,-2.5691,-2.5772,-2.5808,-2.5861,-2.5922,-2.5937,-2.5994,-2.6035,-2.6098,-2.6126,-2.6212,-2.623,-2.6249,-2.6255,-2.6247,-2.6245,-2.6272,-2.6267,-2.6268,-2.6267,-2.6267,-2.6266,0,-2.5476,-2.5513,-2.5608,-2.5676,-2.5695,-2.5753,-2.5812,-2.5865,-2.5897,-2.5974,-2.5994,-2.6046,-2.6121,-2.6161,-2.6255,-2.6274,-2.6371,-2.6374,-2.6349,-2.6351,-2.6399,-2.6393,-2.6547,-2.6569,-2.6456,-2.6457,-2.6458,0,-2.5537,-2.5593,-2.5668,-2.5709,-2.5745,-2.5811,-2.5856,-2.589,-2.5936,-2.6011,-2.6055,-2.613,-2.6193,-2.6313,-2.636,-2.6432,-2.6436,-2.6485,-2.6447,-2.6438,-2.6437,-2.6432,-2.6438,-2.6492,-2.6493,-2.6494,-2.6494,0,-2.5643,-2.5658,-2.5721,-2.5791,-2.5843,-2.59,-2.5956,-2.599,-2.6033,-2.6084,-2.616,-2.6208,-2.6304,-2.638,-2.6456,-2.6494,-2.6502,-2.6506,-2.6521,-2.6513,-2.6496,-2.6505,-2.6366,-2.6502,-2.6501,-2.6501,-2.65,-2.65,-2.5713,-2.5763,-2.5823,-2.5893,-2.5938,-2.599,-2.6043,-2.6082,-2.6145,-2.6225,-2.6242,-2.6322,-2.6384,-2.6487,-2.6528,-2.6592,-2.6582,-2.6604,-2.661,-2.6615,-2.6616,-2.6487,-2.6606,-2.6606,-2.6606,-2.6606,-2.6606,0,-2.5819,-2.5857,-2.5921,-2.5998,-2.6054,-2.6055,-2.6117,-2.6164,-2.6234,-2.629,-2.6351,-2.6439,-2.6512,-2.6565,-2.664,-2.6681,-2.6687,-2.67,-2.6697,-2.6705,-2.6621,-2.66,-2.6694,-2.6694,-2.6694,-2.6694,-2.6694,-2.6694,-2.588,-2.5964,-2.5987,-2.6095,-2.6134,-2.6212,-2.6248,-2.6296,-2.6341,-2.6438,-2.6498,-2.6532,-2.6587,-2.6666,-2.6733,-2.6747,-2.6774,-2.6787,-2.6801,-2.6721,-2.6711,-2.6702,-2.6683,-2.6792,-2.6792,-2.6879,-2.688,-2.6881]},{"header":{"parameterUnit":"m.s-1","parameterCategory":1,"la1":30.2991,"la2":30.254,"lo1":-89.0895,"lo2":-89.0444,"dy":0.0017,"dx":0.0017,"nx":28,"ny":28,"refTime":"2024-05-21T03:00:00:Z","depth":0,"parameterNumber":3,"parameterNumberName":"V-component_of_WINDS"},"data":[0,0,0,0,0,0,0,0,0,0,0,0,0,0,0,0,0,0,0,0,0,0,0,0,0,0,0,0,0,0,0,0,0,0,0,0,0,0,0,0,0,0,0,0,0,0,0,0,0,0,0,0,0,0,0,0,0,0,2.7231,2.7231,0,2.7216,2.7216,2.7216,2.716,2.7158,2.7157,2.7156,2.714,2.714,2.7141,0,0,0,0,0,0,0,0,0,0,0,0,0,2.7211,2.7212,2.7231,2.7231,2.7231,2.7216,2.7216,2.7216,2.716,2.7158,2.7157,2.7155,2.7139,2.714,2.7141,0,0,0,0,0,0,0,0,0,0,0,0,0,2.721,2.7212,2.7231,2.7201,2.7199,2.7216,2.7216,2.7215,2.716,2.7158,2.7156,2.7155,2.7139,2.714,2.7141,2.7187,0,0,2.7145,2.7145,0,0,0,0,0,0,0,0,2.7211,2.7211,2.7206,2.7204,2.72,2.7188,2.7203,2.7206,2.7161,2.7175,2.7156,2.7154,2.7157,2.7157,2.7158,2.7186,2.7185,2.7145,2.7146,2.7146,2.7146,0,0,0,0,0,0,0,2.7211,2.7212,2.7225,2.7206,2.7203,2.7188,2.7186,2.7203,2.7177,2.7173,2.7169,2.7168,2.7155,2.7157,2.7157,2.7185,2.7145,2.7146,2.7147,2.7147,2.7246,2.7248,0,0,0,0,0,0,2.7215,2.7212,2.7226,2.7225,2.7201,2.719,2.7188,2.7194,2.7177,2.7172,2.717,2.7166,2.7156,2.7156,2.7156,2.7206,2.7146,2.7147,2.7148,2.7244,2.7247,2.7249,0,0,0,0,0,0,2.7215,2.7217,2.7226,2.7217,2.7217,2.7193,2.72,2.7194,2.7196,2.7174,2.7169,2.7177,2.7155,2.7155,2.7179,2.7205,2.7148,2.7149,2.7242,2.7245,2.7248,2.7307,0,0,0,0,0,0,2.7215,2.7217,2.7234,2.7218,2.7218,2.725,2.7201,2.7196,2.7198,2.7193,2.7179,2.7175,2.7153,2.7178,2.718,2.7205,2.715,2.724,2.7243,2.7247,2.7303,2.7312,2.7319,0,0,0,0,0,2.7214,2.7252,2.7236,2.7238,2.7239,2.7251,2.7251,2.7226,2.7201,2.7217,2.7203,2.7175,2.7202,2.718,2.7183,2.7209,2.7238,2.7242,2.7247,2.7299,2.731,2.7319,0,0,0,0,0,0,2.7273,2.725,2.7231,2.7265,2.7261,2.7242,2.7262,2.7239,2.7241,2.7236,2.7204,2.7201,2.7229,2.7222,2.7198,2.725,2.7215,2.722,2.7254,2.7264,2.7273,2.7273,2.7151,0,0,0,0,0,2.729,2.7302,2.7281,2.7313,2.7311,2.7288,2.7292,2.7272,2.7266,2.7264,2.7251,2.7247,2.7253,2.7259,2.7264,2.7302,2.7297,2.7321,2.7329,2.7336,2.734,2.7357,2.7367,2.7263,2.7263,2.7263,0,0,2.7324,2.7313,2.7323,2.7324,2.7318,2.7331,2.7286,2.7302,2.731,2.7267,2.7288,2.7278,2.7271,2.7301,2.7314,2.7296,2.7368,2.7342,2.7348,2.7348,2.7363,2.7373,2.7382,2.7266,2.7266,2.7265,0,0,2.7394,2.7388,2.7412,2.7407,2.7399,2.7383,2.7389,2.7373,2.7365,2.7386,2.7353,2.7363,2.7376,2.7371,2.7371,2.7437,2.7411,2.744,2.7483,2.75,2.7508,2.7515,2.7537,2.7545,2.7445,2.7445,2.7445,0,2.7438,2.7456,2.7428,2.7445,2.7446,2.7407,2.7431,2.7428,2.7422,2.7423,2.7403,2.7417,2.741,2.7437,2.7453,2.7455,2.7459,2.7441,2.7509,2.7516,2.7522,2.7542,2.7551,2.7448,2.7448,2.7447,2.7447,0,2.7509,2.7522,2.7543,2.7538,2.7541,2.7562,2.7537,2.7543,2.7524,2.7509,2.753,2.7519,2.7521,2.7526,2.7508,2.7551,2.7539,2.7515,2.7478,2.7536,2.7554,2.7562,2.7453,2.7452,2.7451,2.745,0,0,2.7615,2.7593,2.7601,2.7597,2.7585,2.7594,2.7612,2.7613,2.7619,2.7616,2.7629,2.7641,2.7618,2.7617,2.7598,2.7613,2.7663,2.7586,2.7585,2.7599,2.7708,2.7725,2.7734,2.7647,2.7648,2.7649,2.7708,0,2.7679,2.7709,2.7684,2.7719,2.7729,2.7692,2.7707,2.7701,2.7688,2.7694,2.768,2.7687,2.7657,2.7656,2.767,2.7655,2.7684,2.765,2.7657,2.7658,2.7658,2.7744,2.7763,2.7818,2.7715,2.7716,2.7717,0,2.7758,2.7758,2.7793,2.7776,2.778,2.7794,2.7792,2.78,2.7791,2.778,2.7779,2.7755,2.7771,2.7736,2.7757,2.7734,2.7735,2.7728,2.773,2.7728,2.769,2.7743,2.7836,2.7843,2.7728,2.7728,2.7727,0,2.7829,2.7837,2.7859,2.7857,2.7839,2.785,2.7843,2.7832,2.7834,2.7833,2.7833,2.7834,2.7834,2.7835,2.7811,2.7788,2.7834,2.7798,2.7824,2.7824,2.7833,2.7833,2.7926,2.7838,2.7838,2.7838,2.7838,0,2.7902,2.7924,2.789,2.7903,2.7926,2.7898,2.7922,2.7911,2.7902,2.7911,2.788,2.7889,2.7858,2.7864,2.7846,2.7864,2.7865,2.7856,2.785,2.7858,2.7858,2.7857,2.7852,2.784,2.784,2.7839,2.7839,0,2.7984,2.7963,2.7983,2.7964,2.7959,2.7977,2.7961,2.7971,2.7956,2.7968,2.797,2.7945,2.7951,2.7927,2.7929,2.7916,2.7943,2.7933,2.7946,2.7942,2.7968,2.7965,2.8062,2.8072,2.798,2.7981,2.7982,0,2.8032,2.8048,2.803,2.8034,2.8028,2.8035,2.8037,2.8009,2.8012,2.8002,2.8014,2.8017,2.8017,2.8027,2.8009,2.801,2.7997,2.8031,2.7997,2.8003,2.7995,2.7993,2.7994,2.8037,2.8039,2.804,2.804,0,2.8117,2.8105,2.8108,2.8107,2.8109,2.8107,2.8103,2.8108,2.8078,2.8083,2.8087,2.8088,2.8089,2.8091,2.8088,2.8079,2.8054,2.8051,2.8057,2.8064,2.807,2.8064,2.7963,2.8049,2.8048,2.8047,2.8047,2.8047,2.8182,2.8193,2.8182,2.8186,2.818,2.8176,2.8185,2.817,2.8174,2.8172,2.8156,2.8163,2.8153,2.8145,2.814,2.8144,2.8128,2.8137,2.8139,2.8141,2.8145,2.8071,2.8144,2.8144,2.8144,2.8143,2.8143,0,2.8263,2.8254,2.8258,2.8253,2.8256,2.8232,2.8226,2.823,2.8237,2.8229,2.823,2.8234,2.8236,2.8218,2.8218,2.8225,2.8213,2.8225,2.8224,2.8222,2.816,2.8154,2.8235,2.8235,2.8235,2.8235,2.8235,2.8235,2.8306,2.8324,2.8311,2.8325,2.8315,2.8322,2.832,2.8316,2.831,2.8316,2.8317,2.8306,2.8293,2.8291,2.8291,2.8286,2.8286,2.8302,2.8293,2.8235,2.8226,2.8218,2.8212,2.8303,2.8303,2.8353,2.8354,2.8354]}]]